Regional Weather Roundup
Issued by NWS

Home | Current Version | Previous Version | Text Only | Print | Product List | Glossary On
Versions: 1 2 3 4 5 6 7 8 9 10 11 12 13 14 15 16 17 18 19 20 21 22 23 24 25 26 27 28 29 30 31 32 33 34 35 36 37 38 39 40 41 42 43 44 45 46 47 48 49 50
000
ASUS42 KFFC 311403
RWRGA
WEATHER ROUNDUP FOR GEORGIA
NATIONAL WEATHER SERVICE PEACHTREE CITY GA
900 AM EST SAT JAN 31 2015

NOTE: "FAIR" INDICATES FEW OR NO CLOUDS BELOW 12,000 FEET WITH NO
SIGNIFICANT WEATHER AND/OR OBSTRUCTIONS TO VISIBILITY.

* = USE WITH CAUTION. THE STATIONS MARKED WITH AN ASTERISK MAY NOT
REPORT WEATHER SUCH AS PRECIPITATION, FOG, OR THUNDER AND ARE NOT
QUALITY CONTROLLED BY NWS.

THE REMARK "TC" DENOTES TEMPERATURE READING IN DEGREES CELSIUS.

GAZ001>058-311500-
NORTH GEORGIA

CITY           SKY/WX    TMP DP  RH WIND       PRES   REMARKS
ATLANTA        MOSUNNY   33  21  61 NW3       30.35R
ATHENS         MOSUNNY   33  24  69 CALM      30.36R
CHAMBLEE       MOSUNNY   33  23  66 CALM      30.36R
PEACHTREE CITY MOSUNNY   30  25  81 CALM      30.37R
ROME           MOSUNNY   33  24  69 CALM      30.38R
WEST ATLANTA   SUNNY     32  21  64 CALM      30.37R
GAINESVILLE    SUNNY     34  21  59 CALM      30.35R HAZE
CARTERSVILLE   MOSUNNY   31  20  63 NE3       30.38R


CITY           SKY/WX    TMP DP  RH WIND       PRES   REMARKS
DALTON*        CLOUDY    30  23  74 CALM      30.38R
LAWRENCEVILLE* SUNNY     30  18  59 CALM      30.34R
MARIETTA       MOSUNNY   31  23  73 CALM      30.35R
KENNESAW*      MOSUNNY   30  23  74 CALM      30.37R
$$

GAZ059>098-102>109-311500-
CENTRAL GEORGIA

CITY           SKY/WX    TMP DP  RH WIND       PRES   REMARKS
AUGUSTA-BUSH   SUNNY     33  26  75 NW3       30.40R
AUGUSTA-DANIEL SUNNY     38  19  46 N3        30.38R
COLUMBUS       SUNNY     34  23  64 CALM      30.37R
MACON          MOSUNNY   30  27  88 CALM      30.38R
ROBINS AFB     MOSUNNY   32  27  82 W2        30.37R


CITY           SKY/WX    TMP DP  RH WIND       PRES   REMARKS
LAGRANGE*      SUNNY     35  29  79 CALM      30.36S
SYLVANIA*      SUNNY     37  26  65 E5        30.38R WCI  33
MILLEDGEVILLE* MOSUNNY   32  32 100 CALM      30.38R
$$

GAZ099>101-110>166-311500-
SOUTH GEORGIA

CITY           SKY/WX    TMP DP  RH WIND       PRES   REMARKS
SAVANNAH       MOSUNNY   39  25  57 E7        30.38R WCI  34
VALDOSTA       SUNNY     41  26  55 NE9       30.36R
ALMA           SUNNY     40  23  50 NE8       30.37R WCI  34
ST SIMONS      SUNNY     49  35  58 NE12      30.35R
FT STEWART     SUNNY     37  26  63 NE5       30.36R WCI  34
ALBANY         SUNNY     39  26  59 NE8       30.38S WCI  33
HUNTER AFB     SUNNY     40  26  57 NE5       30.36R
MOODY AFB      SUNNY     40  26  57 E7        30.35R
BRUNSWICK      SUNNY     45  34  65 NE6       30.36S


CITY           SKY/WX    TMP DP  RH WIND       PRES   REMARKS
BAINBRIDGE*    SUNNY     41  32  70 E8        30.36S
MOULTRIE*      SUNNY     41  28  60 NE3       30.37R
VIDALIA*       SUNNY     37  27  65 NE5       30.37R WCI  34
WAYCROSS*      SUNNY     44  31  58 E7        30.36R
DOUGLAS*       SUNNY     41  27  56 E8        30.39R
$$


USA.gov is the U.S. government's official web portal to all federal, state and local government web resources and services.